FALCON 9 R/B, 56175

Orbit data source: Space-Track

FALCON 9 R/B, 56175 is space debris in HEO originally from a launch on Fri, 07 Apr 2023 UTC launched from the Air Force Eastern Test Range (AFETR). Debris objects in space refer to the collection of defunct objects orbiting the Earth. Examples of debris include non-operational satellites, rocket bodies, and fragments generated from explosions, collisions, or faulty payload assembly.

Loading next visibility...
Identifier
56175, 2023-052B
Orbit
HEO
Last TLE update
18 hours ago
Origin
Manufacturer
SpaceX
Mission
Spacecraft
Bus & Motor
F9ST2, Unknown motor
Mass
~3,000 kg wet, ~3,000 kg dry
Launch date (UTC)
2023-04-07 (2 years ago)
Launch vehicle
Unknown
Launch site
Air Force Eastern Test Range (AFETR)
Object type
Payload
Rocket body
Debris
Shape & HBR
Cyl, 15.53 m
Radar Cross Section
39.980 m², Large (>1 m²)

Expand to show TLE details & history

TLE from 18 hours ago
0 FALCON 9 R/B
1 56175U 23052B   25174.93706175  .00024001  00000-0  95354-3 0  9999
2 56175  27.1242  11.7532 6358040 196.6062 125.1318  3.57703345 25060
Epoch: 2025-06-23T22:29Z
TLE epoch observation values (Epoch: 2025-06-23T22:29:22.135Z)
Latitude
-0.00002°
Longitude
122.07402°
Altitude
21,145.87 km
Speed
2.626 km/s
True Right ascension
00h 47m 01s
True Declination
0° 00' 00"
Sunlit
Object was in daylight at epoch
Visualization orbit readout
Latitude
-3.93748°
Longitude
-50.73665°
Altitude
239.823 km
Speed
9.919 km/s
Apparent Right ascension
14h 11m 31s
Apparent Declination
-22° 16' 23"
Sunlit
Object is in full shadow
Visualization observer readout
Local Sidereal Time
03:27:18
Azimuth
47.954° ENE
Elevation
-66.138°
Doppler factor
1
Orbital elements
Apogee altitude
23,170.615 km
Perigee altitude
200.608 km
Semi-major axis
18,063.748 km
Eccentricity
0.6358
Inclination
27.1242°
RAAN
11.7532°
Arg. of periapsis
196.6062°
True anomaly
Unknown
Mean anomaly
125.1318°
Eccentric anomaly
Unknown
Mean motion
0.89399 °/min
Orbital period
402.69 mins
BSTAR
0.00095354
Loading maneuver chart data...
Loading SW <> Apogee altitude chart data...
Loading historical data...
Loading historical data...
Loading historical data...
Loading historical data...
Loading historical data...
Loading historical data...
Loading historical data...
Other satellites on launch #52 in the year 2023 (2023-04-07 UTC)

FALCON 9 R/B Visibility forecast

Observer location: undefined°, undefined°

Span
Click to sort rows by Start time (UTC) header in descending order
Start Az.
Max El. time (UTC)
Max El. Az.
Max El.
End time (UTC)
End Az.
90 mins2025-06-24 21:17:29.900Z274.896° WNW2025-06-24 22:39:29.900Z224.174° SW31.218°2025-06-24 22:47:29.900Z165.361° S
168 mins2025-06-25 13:27:29.900Z211.578° SW2025-06-25 16:15:29.900Z215.177° SW37.074°2025-06-25 16:15:29.900Z215.177° SW
|